| time (UTC) | temp F | wind direction | speed knots | gust knots | rain 1hr in | rain 24hr in | rain mn in | humidity % | barometer mb |
| 20260504130349 | 51 | 252 | 0.9 | 2.6 | 0.00 | 0.00 | 0.00 | 52 | 1008.9 |
| 20260504120312 | 50 | 345 | 0.9 | 3.5 | 0.00 | 0.00 | 0.00 | 51 | 1009.1 |
| 20260504110236 | 44 | 198 | 0.9 | 2.6 | 0.00 | 0.00 | 0.00 | 65 | 1008.9 |
| 20260504100159 | 39 | 222 | 0.0 | 0.0 | 0.00 | 0.00 | 0.00 | 76 | 1008.6 |
| 20260504090122 | 41 | 195 | 0.9 | 2.6 | 0.00 | 0.00 | 0.00 | 71 | 1008.8 |
| 20260504081552 | 41 | 209 | 0.0 | 0.0 | 0.00 | 0.00 | 0.00 | 70 | 1008.9 |
| 20260504081048 | 41 | 140 | 0.0 | 0.0 | 0.00 | 0.00 | 0.00 | 69 | 1008.8 |
| 20260504080545 | 41 | 229 | 0.0 | 0.9 | 0.00 | 0.00 | 0.00 | 69 | 1009.0 |
| 20260504050357 | 38 | 198 | 0.0 | 0.0 | 0.00 | 0.00 | 0.00 | 77 | 1008.4 |
| 20260504045855 | 37 | 212 | 0.0 | 0.0 | 0.00 | 0.00 | 0.00 | 78 | 1008.7 |
| 20260504045349 | 37 | 212 | 0.0 | 0.0 | 0.00 | 0.00 | 0.00 | 79 | 1008.8 |
| 20260504044847 | 37 | 203 | 0.0 | 0.0 | 0.00 | 0.00 | 0.00 | 79 | 1008.8 |
| 20260504044344 | 37 | 220 | 0.0 | 0.0 | 0.00 | 0.00 | 0.00 | 81 | 1008.9 |
| 20260504043841 | 37 | 205 | 0.0 | 0.0 | 0.00 | 0.00 | 0.00 | 83 | 1008.9 |
| 20260504043338 | 37 | 206 | 0.0 | 0.0 | 0.00 | 0.00 | 0.00 | 82 | 1008.9 |
| 20260504042835 | 37 | 207 | 0.0 | 0.0 | 0.00 | 0.00 | 0.00 | 81 | 1008.9 |
| 20260504042331 | 38 | 208 | 0.0 | 0.0 | 0.00 | 0.00 | 0.00 | 80 | 1008.8 |
| 20260504041828 | 38 | 208 | 0.0 | 0.0 | 0.00 | 0.00 | 0.00 | 80 | 1008.8 |
| 20260504041324 | 38 | 231 | 0.0 | 0.0 | 0.00 | 0.00 | 0.00 | 79 | 1008.9 |
| 20260504040820 | 39 | 232 | 0.0 | 0.0 | 0.00 | 0.00 | 0.00 | 76 | 1009.0 |
| 20260504040318 | 39 | 232 | 0.0 | 0.0 | 0.00 | 0.00 | 0.00 | 76 | 1009.1 |
| 20260504035814 | 39 | 232 | 0.0 | 0.0 | 0.00 | 0.00 | 0.00 | 75 | 1008.9 |
| 20260504035311 | 39 | 232 | 0.0 | 0.0 | 0.00 | 0.00 | 0.00 | 73 | 1009.3 |
| 20260504034808 | 39 | 232 | 0.0 | 0.0 | 0.00 | 0.00 | 0.00 | 74 | 1009.2 |
| 20260504034306 | 40 | 232 | 0.0 | 0.0 | 0.00 | 0.00 | 0.00 | 73 | 1009.0 |
| 20260504033803 | 40 | 232 | 0.0 | 0.0 | 0.00 | 0.00 | 0.00 | 73 | 1008.9 |
| 20260504033301 | 40 | 232 | 0.0 | 0.0 | 0.00 | 0.00 | 0.00 | 71 | 1009.0 |
| 20260504032757 | 40 | 232 | 0.0 | 0.0 | 0.00 | 0.00 | 0.00 | 72 | 1009.0 |
| 20260504032254 | 40 | 232 | 0.0 | 0.0 | 0.00 | 0.00 | 0.00 | 73 | 1009.1 |
| 20260504031751 | 40 | 232 | 0.0 | 0.0 | 0.00 | 0.00 | 0.00 | 71 | 1009.0 |
| 20260504031249 | 41 | 233 | 0.0 | 0.0 | 0.00 | 0.00 | 0.00 | 71 | 1008.9 |
| 20260504030744 | 41 | 236 | 0.0 | 0.0 | 0.00 | 0.00 | 0.00 | 71 | 1009.0 |
| 20260504030242 | 41 | 226 | 0.0 | 0.0 | 0.00 | 0.00 | 0.00 | 70 | 1008.9 |
| 20260504025738 | 41 | 226 | 0.0 | 0.0 | 0.00 | 0.00 | 0.00 | 70 | 1009.0 |
| 20260504025235 | 42 | 226 | 0.0 | 0.0 | 0.00 | 0.00 | 0.00 | 69 | 1008.9 |
| 20260504024732 | 42 | 226 | 0.0 | 0.0 | 0.00 | 0.00 | 0.00 | 66 | 1009.0 |
| 20260504024228 | 43 | 217 | 0.0 | 0.0 | 0.00 | 0.00 | 0.00 | 64 | 1009.1 |
| 20260504023725 | 43 | 225 | 0.0 | 0.0 | 0.00 | 0.00 | 0.00 | 64 | 1009.2 |
| 20260504023221 | 43 | 230 | 0.0 | 0.0 | 0.00 | 0.00 | 0.00 | 65 | 1009.1 |
| 20260504022712 | 42 | 235 | 0.0 | 0.0 | 0.00 | 0.00 | 0.00 | 66 | 1009.1 |
| 20260504022209 | 42 | 235 | 0.0 | 0.0 | 0.00 | 0.00 | 0.00 | 69 | 1009.1 |
| 20260504021706 | 42 | 235 | 0.0 | 0.0 | 0.00 | 0.00 | 0.00 | 69 | 1009.4 |
| 20260504021203 | 42 | 235 | 0.0 | 0.0 | 0.00 | 0.00 | 0.00 | 70 | 1009.0 |
| 20260504020700 | 42 | 235 | 0.0 | 0.0 | 0.00 | 0.00 | 0.00 | 70 | 1009.1 |
| 20260504020155 | 42 | 236 | 0.0 | 0.0 | 0.00 | 0.00 | 0.00 | 72 | 1009.1 |
| 20260504015653 | 42 | 235 | 0.0 | 0.0 | 0.00 | 0.00 | 0.00 | 71 | 1009.0 |
| 20260504015149 | 42 | 224 | 0.0 | 0.0 | 0.00 | 0.00 | 0.00 | 70 | 1009.1 |
| 20260504014645 | 42 | 224 | 0.0 | 0.0 | 0.00 | 0.00 | 0.00 | 74 | 1008.9 |
| 20260504014142 | 41 | 224 | 0.0 | 0.0 | 0.00 | 0.00 | 0.00 | 70 | 1008.8 |
| 20260504013639 | 41 | 224 | 0.0 | 0.0 | 0.00 | 0.00 | 0.00 | 72 | 1008.8 |
| 20260504013136 | 41 | 222 | 0.0 | 0.0 | 0.00 | 0.00 | 0.00 | 71 | 1008.6 |
| 20260504012633 | 41 | 221 | 0.0 | 0.0 | 0.00 | 0.00 | 0.00 | 72 | 1008.8 |
| 20260504012131 | 41 | 221 | 0.0 | 0.0 | 0.00 | 0.00 | 0.00 | 70 | 1008.8 |
| 20260504011627 | 41 | 221 | 0.0 | 0.0 | 0.00 | 0.00 | 0.00 | 70 | 1008.8 |
| 20260504011124 | 41 | 221 | 0.0 | 0.0 | 0.00 | 0.00 | 0.00 | 69 | 1008.7 |
| 20260504010620 | 41 | 221 | 0.0 | 0.0 | 0.00 | 0.00 | 0.00 | 69 | 1008.7 |
| 20260504010116 | 41 | 221 | 0.0 | 0.0 | 0.00 | 0.00 | 0.00 | 69 | 1008.6 |
| 20260504005613 | 41 | 221 | 0.0 | 0.0 | 0.00 | 0.00 | 0.00 | 68 | 1008.6 |
| 20260504005110 | 41 | 221 | 0.0 | 0.0 | 0.00 | 0.00 | 0.00 | 67 | 1008.4 |
| 20260504004608 | 42 | 222 | 0.0 | 0.0 | 0.00 | 0.00 | 0.00 | 69 | 1008.6 |
| 20260504004105 | 42 | 222 | 0.0 | 0.0 | 0.00 | 0.00 | 0.00 | 67 | 1008.6 |
| 20260504003600 | 42 | 222 | 0.0 | 0.0 | 0.00 | 0.00 | 0.00 | 66 | 1008.4 |
| 20260504003057 | 42 | 222 | 0.0 | 0.0 | 0.00 | 0.00 | 0.00 | 65 | 1008.4 |
| 20260504002554 | 43 | 222 | 0.0 | 0.0 | 0.00 | 0.00 | 0.00 | 64 | 1008.3 |
| 20260504002052 | 43 | 222 | 0.0 | 0.0 | 0.00 | 0.00 | 0.00 | 63 | 1008.2 |
| 20260504001549 | 44 | 222 | 0.0 | 0.0 | 0.00 | 0.00 | 0.00 | 64 | 1008.2 |
| 20260504001045 | 44 | 227 | 0.0 | 0.0 | 0.00 | 0.00 | 0.00 | 60 | 1008.2 |
| 20260504000543 | 44 | 227 | 0.0 | 0.0 | 0.00 | 0.00 | 0.00 | 60 | 1008.1 |
| 20260504000040 | 45 | 227 | 0.0 | 0.0 | 0.00 | 0.00 | 0.00 | 58 | 1008.2 |
| 20260503235538 | 45 | 226 | 0.0 | 0.0 | 0.00 | 0.00 | 0.00 | 57 | 1008.0 |
| 20260503235035 | 46 | 237 | 0.0 | 0.0 | 0.00 | 0.00 | 0.00 | 56 | 1008.0 |
| 20260503234532 | 46 | 237 | 0.0 | 0.0 | 0.00 | 0.00 | 0.00 | 56 | 1008.0 |
| 20260503234031 | 47 | 226 | 0.0 | 0.0 | 0.00 | 0.00 | 0.00 | 54 | 1008.2 |
| 20260503233526 | 47 | 244 | 0.0 | 0.9 | 0.00 | 0.00 | 0.00 | 52 | 1008.1 |
| 20260503233023 | 47 | 233 | 0.0 | 0.0 | 0.00 | 0.00 | 0.00 | 53 | 1008.2 |
| 20260503232520 | 47 | 263 | 0.9 | 1.7 | 0.00 | 0.00 | 0.00 | 51 | 1008.1 |
| 20260503232017 | 47 | 214 | 0.0 | 0.0 | 0.00 | 0.00 | 0.00 | 52 | 1008.1 |
| 20260503231515 | 48 | 242 | 0.0 | 0.9 | 0.00 | 0.00 | 0.00 | 52 | 1008.1 |
| 20260503231012 | 48 | 216 | 0.0 | 0.0 | 0.00 | 0.00 | 0.00 | 52 | 1008.2 |
| 20260503230508 | 48 | 232 | 0.0 | 1.7 | 0.00 | 0.00 | 0.00 | 51 | 1007.8 |
| 20260503230006 | 48 | 181 | 1.7 | 1.7 | 0.00 | 0.00 | 0.00 | 50 | 1007.9 |
| 20260503225503 | 48 | 239 | 0.0 | 0.0 | 0.00 | 0.00 | 0.00 | 52 | 1008.0 |
| 20260503224958 | 49 | 216 | 0.0 | 0.9 | 0.00 | 0.00 | 0.00 | 49 | 1007.9 |
| 20260503224455 | 49 | 251 | 1.7 | 3.5 | 0.00 | 0.00 | 0.00 | 49 | 1008.1 |
| 20260503223953 | 49 | 260 | 0.0 | 6.1 | 0.00 | 0.00 | 0.00 | 49 | 1008.1 |
| 20260503223451 | 49 | 225 | 0.9 | 1.7 | 0.00 | 0.00 | 0.00 | 48 | 1008.1 |
| 20260503222946 | 49 | 229 | 0.0 | 0.9 | 0.00 | 0.00 | 0.00 | 51 | 1008.0 |
| 20260503222445 | 49 | 230 | 0.0 | 0.0 | 0.00 | 0.00 | 0.00 | 48 | 1007.8 |
| 20260503221942 | 49 | 169 | 0.9 | 2.6 | 0.00 | 0.00 | 0.00 | 52 | 1008.0 |
| 20260503221440 | 49 | 247 | 0.9 | 3.5 | 0.00 | 0.00 | 0.00 | 51 | 1007.9 |
| 20260503220937 | 49 | 222 | 0.9 | 1.7 | 0.00 | 0.00 | 0.00 | 48 | 1007.9 |
| 20260503220433 | 49 | 302 | 3.5 | 6.1 | 0.00 | 0.00 | 0.00 | 48 | 1008.1 |
| 20260503215930 | 50 | 192 | 0.0 | 1.7 | 0.00 | 0.00 | 0.00 | 48 | 1008.0 |
| 20260503215427 | 50 | 274 | 1.7 | 3.5 | 0.00 | 0.00 | 0.00 | 47 | 1007.8 |
| 20260503214925 | 50 | 205 | 1.7 | 3.5 | 0.00 | 0.00 | 0.00 | 46 | 1007.9 |
| 20260503214422 | 50 | 218 | 0.0 | 5.2 | 0.00 | 0.00 | 0.00 | 45 | 1007.7 |
| 20260503213920 | 50 | 286 | 0.9 | 2.6 | 0.00 | 0.00 | 0.00 | 46 | 1008.0 |
| 20260503213418 | 50 | 171 | 0.9 | 2.6 | 0.00 | 0.00 | 0.00 | 44 | 1007.8 |
| 20260503212914 | 50 | 243 | 2.6 | 6.1 | 0.00 | 0.00 | 0.00 | 43 | 1007.7 |
| 20260503212412 | 50 | 187 | 1.7 | 7.0 | 0.00 | 0.00 | 0.00 | 44 | 1007.7 |
| 20260503211909 | 50 | 150 | 2.6 | 5.2 | 0.00 | 0.00 | 0.00 | 43 | 1007.8 |
| 20260503211405 | 51 | 145 | 0.9 | 2.6 | 0.00 | 0.00 | 0.00 | 43 | 1007.6 |
| 20260503210900 | 51 | 272 | 2.6 | 7.0 | 0.00 | 0.00 | 0.00 | 41 | 1007.6 |
| 20260503210358 | 51 | 309 | 1.7 | 1.7 | 0.00 | 0.00 | 0.00 | 40 | 1007.5 |
| 20260503205853 | 51 | 278 | 0.9 | 7.0 | 0.00 | 0.00 | 0.00 | 41 | 1007.5 |
| 20260503205350 | 51 | 110 | 0.0 | 0.9 | 0.00 | 0.00 | 0.00 | 41 | 1007.5 |
| 20260503204846 | 50 | 246 | 1.7 | 5.2 | 0.00 | 0.00 | 0.00 | 42 | 1007.4 |
| 20260503204343 | 50 | 233 | 0.9 | 5.2 | 0.00 | 0.00 | 0.00 | 41 | 1007.4 |
| 20260503203841 | 50 | 253 | 0.9 | 0.9 | 0.00 | 0.00 | 0.00 | 40 | 1007.5 |
| 20260503203338 | 50 | 28 | 1.7 | 1.7 | 0.00 | 0.00 | 0.00 | 41 | 1007.3 |
| 20260503202835 | 50 | 254 | 1.7 | 3.5 | 0.00 | 0.00 | 0.00 | 39 | 1007.3 |
| 20260503202333 | 50 | 293 | 2.6 | 3.5 | 0.00 | 0.00 | 0.00 | 38 | 1007.2 |
| 20260503201831 | 51 | 313 | 3.5 | 7.0 | 0.00 | 0.00 | 0.00 | 37 | 1007.3 |
| 20260503201327 | 51 | 320 | 1.7 | 3.5 | 0.00 | 0.00 | 0.00 | 38 | 1007.6 |
| 20260503200825 | 51 | 181 | 0.0 | 3.5 | 0.00 | 0.00 | 0.00 | 39 | 1007.4 |
| 20260503200321 | 50 | 116 | 1.7 | 2.6 | 0.00 | 0.00 | 0.00 | 40 | 1007.5 |
| 20260503195819 | 50 | 134 | 1.7 | 5.2 | 0.00 | 0.00 | 0.00 | 38 | 1007.4 |
| 20260503195315 | 51 | 211 | 0.9 | 3.5 | 0.00 | 0.00 | 0.00 | 39 | 1007.3 |
| 20260503194813 | 50 | 280 | 0.9 | 2.6 | 0.00 | 0.00 | 0.00 | 38 | 1007.4 |
| 20260503194308 | 50 | 230 | 0.9 | 2.6 | 0.00 | 0.00 | 0.00 | 41 | 1007.6 |
| 20260503193804 | 51 | 233 | 1.7 | 3.5 | 0.00 | 0.00 | 0.00 | 40 | 1007.7 |
| 20260503193300 | 51 | 275 | 1.7 | 2.6 | 0.00 | 0.00 | 0.00 | 35 | 1007.8 |
| 20260503192756 | 51 | 166 | 1.7 | 7.0 | 0.00 | 0.00 | 0.00 | 35 | 1007.7 |
| 20260503192252 | 50 | 292 | 1.7 | 5.2 | 0.00 | 0.00 | 0.00 | 37 | 1007.8 |
| 20260503191748 | 50 | 323 | 2.6 | 3.5 | 0.00 | 0.00 | 0.00 | 37 | 1007.9 |
| 20260503191246 | 50 | 304 | 1.7 | 6.1 | 0.00 | 0.00 | 0.00 | 37 | 1007.9 |
| 20260503190742 | 50 | 317 | 0.9 | 3.5 | 0.00 | 0.00 | 0.00 | 41 | 1008.1 |
| 20260503190239 | 51 | 79 | 3.5 | 6.1 | 0.00 | 0.00 | 0.00 | 40 | 1008.0 |
| 20260503185737 | 50 | 212 | 1.7 | 6.1 | 0.00 | 0.00 | 0.00 | 38 | 1008.3 |
| 20260503185232 | 51 | 235 | 0.9 | 1.7 | 0.00 | 0.00 | 0.00 | 36 | 1008.1 |
| 20260503184727 | 50 | 255 | 1.7 | 3.5 | 0.00 | 0.00 | 0.00 | 37 | 1007.9 |
| 20260503184223 | 50 | 110 | 3.5 | 3.5 | 0.00 | 0.00 | 0.00 | 38 | 1008.3 |
| 20260503183720 | 49 | 102 | 1.7 | 2.6 | 0.00 | 0.00 | 0.00 | 38 | 1008.1 |
| 20260503183217 | 50 | 242 | 0.9 | 7.0 | 0.00 | 0.00 | 0.00 | 38 | 1008.3 |
| 20260503182716 | 49 | 258 | 1.7 | 5.2 | 0.00 | 0.00 | 0.00 | 38 | 1008.3 |
| 20260503182214 | 50 | 220 | 0.9 | 3.5 | 0.00 | 0.00 | 0.00 | 36 | 1008.3 |
| 20260503181710 | 50 | 160 | 0.9 | 1.7 | 0.00 | 0.00 | 0.00 | 39 | 1008.2 |
| 20260503181207 | 50 | 291 | 0.9 | 6.1 | 0.00 | 0.00 | 0.00 | 38 | 1008.2 |
| 20260503180703 | 49 | 128 | 2.6 | 8.7 | 0.00 | 0.00 | 0.00 | 38 | 1008.4 |
| 20260503180202 | 49 | 265 | 0.9 | 2.6 | 0.00 | 0.00 | 0.00 | 39 | 1008.3 |
| 20260503175658 | 49 | 131 | 2.6 | 6.1 | 0.00 | 0.00 | 0.00 | 36 | 1008.6 |
| 20260503175156 | 49 | 318 | 0.9 | 3.5 | 0.00 | 0.00 | 0.00 | 39 | 1008.3 |
| 20260503174652 | 49 | 227 | 0.9 | 7.0 | 0.00 | 0.00 | 0.00 | 39 | 1008.3 |
| 20260503174149 | 49 | 202 | 0.9 | 3.5 | 0.00 | 0.00 | 0.00 | 38 | 1008.2 |
| 20260503173644 | 48 | 283 | 4.3 | 7.8 | 0.00 | 0.00 | 0.00 | 38 | 1008.7 |
| 20260503173141 | 46 | 338 | 5.2 | 8.7 | 0.00 | 0.00 | 0.00 | 39 | 1008.3 |
| 20260503172638 | 48 | 332 | 4.3 | 6.1 | 0.00 | 0.00 | 0.00 | 37 | 1008.4 |
| 20260503172135 | 48 | 309 | 2.6 | 5.2 | 0.00 | 0.00 | 0.00 | 37 | 1008.4 |
| 20260503171631 | 47 | 336 | 1.7 | 6.1 | 0.00 | 0.00 | 0.00 | 39 | 1008.6 |
| 20260503171129 | 47 | 302 | 3.5 | 3.5 | 0.00 | 0.00 | 0.00 | 41 | 1008.6 |
| 20260503170626 | 48 | 220 | 0.9 | 6.1 | 0.00 | 0.00 | 0.00 | 40 | 1008.8 |
| 20260503170122 | 48 | 293 | 2.6 | 6.1 | 0.00 | 0.00 | 0.00 | 37 | 1008.4 |
| 20260503150514 | 42 | 222 | 0.0 | 7.8 | 0.00 | 0.00 | 0.00 | 48 | 1009.3 |